Probability
0 0 0 0 0 0 0 0 0 0 1 3 3 3 3 2 2 2 2 2 3 8 16 22 23 23 22 21 20 19 21 25 26 26 25 23 20 16 12 10 11 10 8 6 5 3 1 0 0
0 0 0 0 0 0 0 0 0 1 3 4 4 4 3 2 3 2 1 2 3 7 14 21 24 24 22 20 18 19 21 25 26 26 25 25 24 20 14 12 12 11 8 7 5 4 2 1 0
0 0 0 0 0 0 0 0 0 1 3 5 5 5 3 3 3 2 1 1 2 5 12 21 24 23 22 21 20 21 23 25 26 26 27 28 28 23 17 13 12 10 8 7 6 5 3 1 0
0 0 0 0 0 0 0 0 0 0 2 3 4 5 4 3 1 2 2 2 2 3 9 18 23 23 22 23 24 24 25 25 26 27 28 29 28 23 18 15 12 9 8 9 9 7 5 3 2
0 0 0 0 0 0 0 0 0 0 0 1 2 4 5 3 1 2 4 3 3 4 8 16 22 22 22 24 25 25 26 25 25 27 29 30 28 24 20 18 13 11 11 11 11 8 6 5 4
0 0 0 0 0 0 0 0 0 0 0 0 0 3 6 5 4 5 6 7 7 7 9 15 20 21 21 23 23 23 24 25 26 29 30 30 27 23 21 19 15 12 11 12 10 7 5 4 4
0 0 0 0 0 0 0 0 0 0 0 0 0 2 6 8 9 9 11 13 12 11 13 15 16 17 17 19 21 22 22 25 28 30 31 29 25 21 19 17 16 12 10 10 8 5 4 3 3
0 0 0 0 0 1 0 0 0 0 0 0 0 1 5 9 12 13 13 14 14 13 14 14 12 11 12 14 17 20 22 25 29 31 30 26 22 19 18 17 17 15 11 9 6 4 3 3 3
0 0 0 0 0 0 0 0 1 0 0 1 1 2 5 9 12 14 14 13 13 13 13 12 10 9 8 10 14 17 20 24 26 28 27 24 20 18 17 17 19 18 14 10 7 4 3 3 3
0 0 0 0 0 0 0 0 0 0 1 2 2 3 7 9 11 15 16 15 15 15 13 11 10 10 10 10 14 18 20 22 23 23 24 23 22 20 17 18 21 19 14 9 6 4 3 3 3
0 0 0 0 0 0 0 0 0 1 1 2 4 7 9 9 11 16 18 18 18 17 14 12 13 14 15 16 19 23 25 24 23 24 24 25 26 24 21 20 20 16 10 6 5 5 5 3 3
0 0 0 0 0 0 0 0 1 3 3 3 6 10 12 12 14 18 19 19 19 19 17 16 17 19 20 22 26 29 29 28 28 29 29 29 29 27 25 23 21 16 11 9 8 8 6 4 4
0 0 0 0 0 0 0 0 2 5 4 5 8 12 14 16 18 20 21 22 21 22 22 21 22 23 24 26 29 31 31 32 33 33 32 31 29 27 26 26 24 20 16 15 14 11 8 7 7
0 0 0 0 0 0 0 1 3 4 3 5 9 11 14 16 18 21 24 25 23 24 24 24 23 23 25 27 28 29 30 32 33 32 30 27 26 25 25 27 26 23 19 18 18 14 10 10 10
0 0 0 0 0 0 0 1 3 2 2 4 7 11 13 15 17 19 23 24 23 21 21 21 20 20 22 25 25 25 26 27 27 27 25 23 22 23 25 27 27 23 20 20 20 15 11 9 9
0 0 0 0 0 1 1 1 3 2 2 3 5 9 11 13 15 16 17 19 18 18 18 17 16 17 19 22 22 21 22 23 24 25 25 23 21 21 24 26 25 22 20 20 20 16 12 9 8
0 0 0 0 0 0 1 2 2 2 2 3 5 7 9 10 11 11 11 11 13 15 16 15 14 16 18 21 22 21 21 21 22 24 25 24 21 20 21 23 23 20 18 19 19 18 15 11 9
0 0 0 0 0 0 1 3 3 2 2 4 5 6 7 6 7 10 10 8 9 12 13 12 12 15 19 21 21 21 20 18 18 21 23 23 21 19 19 21 22 19 17 18 19 18 16 13 11
0 0 0 0 0 1 2 4 4 3 3 5 6 6 5 4 7 11 11 8 8 9 10 9 11 14 17 18 19 18 16 13 13 15 18 19 19 18 17 18 20 19 16 15 16 17 15 13 11
0 0 0 0 0 1 2 3 4 4 4 5 5 4 3 4 9 13 12 9 7 6 7 8 9 11 14 15 16 15 14 11 10 11 12 14 15 15 13 14 16 17 15 12 12 13 13 11 11
0 0 0 0 0 0 1 2 4 5 5 4 4 3 2 3 9 14 14 10 7 5 6 7 7 8 11 13 13 14 14 12 10 10 10 12 13 13 12 13 14 14 12 10 10 10 10 10 11
0 0 0 0 0 0 0 1 4 6 6 4 3 2 1 3 8 13 13 9 6 5 5 6 7 8 9 11 11 12 14 13 11 10 11 12 12 11 11 12 12 11 9 8 8 8 9 10 11
0 0 0 0 0 0 0 0 2 5 6 5 4 2 1 2 8 11 10 7 5 4 4 5 7 8 9 9 10 11 13 13 12 12 12 12 11 9 8 9 10 9 7 6 7 8 9 9 9
0 0 0 0 0 0 0 0 2 4 5 4 4 3 2 3 6 8 8 6 5 4 4 4 7 8 8 8 8 9 12 13 13 13 13 11 9 7 6 7 7 7 6 6 7 9 10 9 8
0 0 0 0 0 0 0 1 3 4 4 3 4 4 3 4 5 6 6 5 4 4 4 4 4 5 6 6 6 7 9 12 14 13 12 10 8 7 7 7 6 6 6 6 6 8 9 8 8
0 0 0 0 0 0 0 2 4 4 3 2 3 3 3 4 4 4 3 3 2 3 4 4 5 5 5 4 4 5 7 10 11 11 10 9 8 8 8 7 6 4 4 4 5 6 7 7 7
0 0 0 0 0 0 1 3 5 4 1 1 2 2 2 3 3 1 1 1 1 2 4 5 7 7 5 4 4 5 6 7 9 9 8 7 7 7 8 8 6 4 3 2 3 4 5 6 6
0 0 0 0 0 0 1 3 4 2 1 0 0 1 2 3 3 1 0 0 0 1 3 5 5 6 5 4 5 6 6 7 8 9 8 6 5 5 6 6 6 5 4 3 2 3 4 5 6
0 0 0 0 0 0 0 1 1 1 0 0 0 0 2 3 3 2 1 0 0 1 3 3 3 3 3 3 4 5 6 6 7 8 8 6 4 3 4 4 4 5 5 4 3 3 3 4 4
0 0 0 0 0 0 1 1 1 0 0 0 0 0 1 3 3 3 3 1 0 1 2 3 3 2 2 2 3 4 5 6 7 7 6 4 4 3 3 3 4 4 4 4 4 3 3 3 3
Wind_Speed
8 7 6 6 8 3 3 3 2 2 3 3 3 3 4 5 6 6 5 7 9 12 15 16 13 12 12 11 11 11 12 11 11 11 11 11 11 10 10 10 9 9 8 8 7 6 5 5 4
5 5 7 7 6 3 4 4 3 4 4 2 2 1 2 4 6 5 6 8 10 12 14 14 14 13 12 11 10 11 12 11 11 11 11 10 10 10 9 9 9 8 7 7 6 6 5 4 4
6 7 7 5 2 0 4 4 3 4 2 0 1 2 3 5 5 4 6 10 11 11 12 14 14 13 12 11 10 10 11 11 11 10 10 10 9 9 8 8 8 8 7 6 6 6 5 5 4
6 7 6 5 2 2 2 2 1 1 2 1 1 3 4 6 4 5 8 10 10 11 11 14 13 12 11 11 10 9 9 9 9 9 9 8 8 8 7 7 7 7 7 6 6 6 5 5 5
7 6 6 3 2 2 1 1 1 1 1 2 1 3 5 6 6 8 9 9 9 9 10 13 12 11 11 10 9 9 9 9 8 8 8 8 7 7 7 7 6 6 6 6 6 6 5 5 5
6 6 5 3 3 3 2 1 1 1 2 2 2 2 6 6 6 7 8 8 9 9 9 11 12 10 10 9 9 8 8 8 8 7 7 7 7 6 6 6 6 6 6 6 6 5 5 6 5
6 4 2 1 2 3 2 1 2 2 2 4 2 2 6 6 6 6 7 8 8 8 8 9 10 11 11 9 8 8 7 7 7 7 7 7 7 7 7 6 6 5 5 5 5 5 5 5 5
6 5 4 2 1 3 3 1 1 2 3 4 3 2 4 6 7 7 7 7 7 7 7 7 6 7 8 9 10 8 7 6 6 6 7 7 8 8 8 7 6 5 5 5 5 5 6 6 6
6 6 2 1 0 2 2 1 2 1 3 3 4 4 6 8 9 8 7 7 7 6 5 5 6 5 5 6 8 8 8 7 7 7 7 8 7 7 7 6 5 6 6 6 6 6 6 8 9
6 4 2 3 3 1 1 1 1 2 3 3 5 6 7 8 8 7 7 6 6 6 5 4 4 4 4 3 4 4 5 5 5 4 5 5 4 3 3 5 5 6 6 7 7 8 9 10 7
3 2 2 2 3 2 1 1 1 1 2 2 3 6 8 7 6 5 5 4 5 5 4 3 3 2 2 2 2 2 2 3 4 4 4 3 3 3 3 3 5 6 7 6 6 8 7 6 5
3 1 2 2 2 2 1 0 1 2 3 4 4 6 7 7 5 4 4 3 3 3 3 2 3 2 2 1 1 2 2 2 2 2 3 3 2 2 2 2 2 3 3 3 4 4 5 6 7
3 1 0 1 1 1 1 1 1 4 4 5 6 6 7 6 5 4 4 4 3 3 2 2 2 2 2 2 1 2 2 2 2 2 3 3 2 2 2 2 3 4 3 4 4 4 5 6 7
1 1 1 1 1 2 3 3 3 4 4 6 6 6 6 5 5 4 4 3 3 2 2 1 0 2 2 2 1 1 2 2 3 2 2 3 2 2 3 3 3 3 3 3 4 4 5 5 5
3 4 4 2 2 2 3 4 4 4 5 6 6 6 6 5 4 4 3 3 3 3 2 1 0 1 2 2 2 1 1 2 2 2 2 2 3 2 3 3 3 2 3 3 4 5 5 5 6
7 7 4 3 1 2 7 3 6 4 5 6 5 5 5 4 4 4 3 3 3 3 3 2 1 0 1 1 2 1 1 1 1 2 2 2 3 3 3 3 2 3 3 3 3 4 4 4 5
6 3 1 3 1 2 5 2 5 4 4 5 4 4 3 4 4 4 3 3 3 3 2 2 2 1 1 1 1 1 1 1 2 1 1 2 3 3 4 3 2 4 3 3 4 2 3 4 4
2 3 2 1 1 3 2 3 5 3 3 4 4 4 2 3 3 3 3 3 2 2 1 1 1 1 1 1 1 1 1 1 2 2 1 2 2 3 4 3 3 4 3 2 2 3 3 4 4
4 5 2 1 1 2 1 2 3 2 2 3 3 3 3 3 3 3 2 2 2 1 1 1 1 1 1 1 2 2 2 2 2 1 1 2 2 2 3 3 3 3 2 2 3 3 4 3 3
4 5 2 1 1 3 2 1 3 2 1 2 2 2 2 2 2 2 2 1 1 1 1 1 1 2 2 2 3 2 2 3 2 1 1 2 2 2 2 2 3 2 2 3 3 3 3 2 2
4 5 4 3 2 4 4 5 4 3 2 2 1 1 2 1 1 0 0 0 1 1 1 1 2 2 2 2 2 2 2 2 2 1 1 1 2 2 3 3 3 3 3 2 3 4 4 3 2
3 4 5 4 6 3 5 4 4 3 2 2 1 1 1 1 0 1 1 1 1 2 1 2 2 2 2 2 3 3 3 3 3 2 1 2 2 2 2 3 3 4 3 2 4 3 4 4 3
4 4 5 6 6 5 4 6 4 3 1 2 2 2 1 1 1 1 2 2 2 2 2 2 2 2 2 2 3 3 3 2 2 2 1 2 1 2 2 2 3 4 3 3 3 3 4 4 4
2 4 5 7 8 6 1 5 1 3 2 3 3 3 3 2 2 2 2 2 2 2 2 1 2 2 2 2 3 3 3 3 3 3 2 2 1 1 2 2 3 3 3 3 4 4 4 4 4
4 6 5 5 5 1 2 4 3 5 4 4 4 4 3 3 3 3 3 2 3 3 2 2 2 2 2 2 2 3 3 3 3 4 2 3 2 1 1 2 3 3 3 3 3 4 4 4 4
4 6 6 6 5 2 2 1 6 6 5 5 4 4 4 4 4 4 3 3 2 2 2 2 2 2 3 2 2 2 3 3 2 2 3 3 3 2 2 3 4 4 4 3 3 4 4 3 4
4 4 5 7 6 6 1 3 6 4 4 6 6 5 5 5 5 4 3 2 2 2 2 2 3 3 3 2 2 2 3 3 2 3 3 2 2 3 3 3 3 3 3 3 4 3 3 3 4
4 3 4 5 5 5 3 2 2 3 4 5 6 6 6 5 5 4 3 2 2 2 2 2 2 2 3 3 3 2 2 3 2 3 2 3 3 3 4 4 4 4 3 3 4 3 2 2 3
1 1 4 4 5 6 5 3 6 3 3 4 5 6 7 7 6 5 3 3 2 2 2 2 2 2 2 3 3 3 2 2 3 3 3 3 3 3 3 4 4 4 3 3 3 3 3 3 3
2 4 4 5 4 5 6 3 6 4 3 4 5 6 6 7 6 6 4 3 3 2 2 2 2 2 2 3 2 2 2 2 3 3 3 3 3 4 3 3 4 4 4 3 3 4 3 3 3
Wind_Direction
215 211 223 230 231 205 115 104 89 79 66 46 33 11 12 13 1 42 80 131 137 141 141 149 150 149 148 148 147 146 149 151 148 148 149 151 153 154 157 162 164 165 169 174 177 182 184 186 190
210 207 226 237 245 166 107 99 99 55 50 48 88 55 42 46 37 74 113 133 144 143 146 151 147 150 151 151 151 150 152 151 149 149 152 154 156 157 162 166 168 170 173 176 179 187 193 198 203
215 229 251 245 239 99 90 87 83 83 68 351 70 46 27 43 61 81 111 142 147 146 147 139 150 152 152 153 153 152 152 152 151 152 155 158 158 160 167 172 174 177 181 185 188 193 201 208 213
222 221 235 239 150 65 31 61 43 145 110 54 30 77 75 50 52 90 124 146 147 146 145 139 152 154 154 154 153 152 151 153 154 156 157 159 160 164 172 179 183 187 190 195 196 199 206 215 220
238 246 224 192 144 98 77 350 303 287 68 56 32 77 75 67 75 104 129 144 144 142 141 138 148 153 155 156 155 154 154 156 158 159 161 164 167 173 179 184 189 194 199 203 202 203 207 216 222
232 240 228 176 139 126 104 341 295 345 53 56 75 87 77 81 98 113 128 140 137 137 136 133 147 154 156 157 157 156 155 155 160 164 167 172 178 184 189 191 195 199 206 209 211 215 217 219 223
261 256 235 188 143 132 87 4 338 11 59 49 20 81 99 88 96 116 128 133 131 135 137 143 154 158 162 159 159 160 159 161 165 169 176 181 186 191 198 199 200 207 219 221 217 219 224 226 225
278 255 212 186 178 96 77 54 35 357 56 55 21 43 95 107 116 123 127 129 127 130 134 143 157 157 166 164 161 162 165 168 173 178 185 191 197 198 204 207 198 213 224 229 228 227 224 226 226
254 244 215 104 13 83 75 126 92 76 98 88 62 43 80 121 130 131 131 130 127 130 139 153 162 167 175 169 156 169 173 176 186 187 192 208 211 204 199 205 193 209 222 232 233 235 234 234 223
245 249 34 15 350 5 43 358 101 162 136 110 101 95 110 129 134 138 137 137 137 140 145 156 160 170 179 167 165 187 190 181 203 202 199 210 216 228 230 161 188 209 225 231 234 241 237 240 233
248 293 18 2 358 333 349 81 9 211 101 68 96 122 133 135 138 136 132 132 134 139 138 144 144 158 181 179 186 196 196 187 203 210 223 224 225 221 229 206 191 208 220 231 225 235 243 249 256
238 282 315 321 341 304 303 106 78 41 48 70 97 121 134 136 132 124 117 109 108 116 128 141 144 148 161 159 197 204 212 200 204 187 229 224 222 232 231 232 239 236 231 241 251 255 257 260 255
229 214 316 273 266 292 226 154 131 74 72 92 108 121 121 115 107 98 93 93 93 87 99 133 145 147 151 157 226 212 216 220 202 211 208 239 235 240 233 232 241 246 245 243 251 260 263 261 257
314 216 210 249 206 190 184 152 149 96 104 107 112 114 111 111 110 104 95 89 84 76 60 42 151 161 168 175 210 234 230 224 227 217 215 238 249 255 247 234 241 250 255 265 263 266 265 263 264
238 217 185 169 196 174 203 151 104 107 124 116 113 112 108 103 105 94 88 84 78 78 71 38 328 157 170 193 217 211 217 235 238 218 216 233 246 247 253 246 240 254 256 254 260 261 261 259 257
218 223 197 124 216 195 243 135 100 126 137 125 119 120 113 103 93 85 82 80 76 76 73 41 17 37 195 214 246 249 255 244 242 238 223 226 247 252 252 253 253 260 251 248 253 261 269 271 271
208 242 250 137 128 224 248 100 105 132 141 134 130 120 115 102 88 78 76 75 75 78 75 48 23 7 346 258 248 259 244 254 254 248 251 237 248 256 259 263 264 255 253 253 263 266 274 273 275
312 291 264 245 104 231 218 110 110 120 143 139 130 125 115 91 73 63 55 62 72 77 83 57 12 15 355 322 263 268 263 259 267 263 242 255 257 269 277 267 265 263 260 263 267 262 258 272 275
309 290 289 43 85 244 181 125 102 113 154 136 125 127 119 96 81 75 64 52 54 56 48 31 355 6 334 318 293 288 291 288 276 278 294 262 260 265 271 283 275 264 263 276 273 264 252 260 278
280 277 268 137 107 269 202 161 120 111 128 104 112 116 129 129 97 67 62 73 52 41 23 337 324 340 310 321 303 285 293 288 290 303 306 291 293 288 262 276 271 264 258 248 257 259 271 270 266
276 291 301 298 234 213 217 193 157 134 114 107 111 132 126 133 115 73 86 58 40 22 349 336 336 321 317 309 297 292 262 258 256 266 257 311 305 291 286 280 284 282 269 254 250 252 255 270 257
296 344 300 266 250 221 232 259 135 138 116 84 46 114 106 100 89 20 345 342 351 347 349 350 342 324 320 301 300 300 294 301 310 295 307 301 286 296 303 289 280 278 275 264 258 248 257 256 263
337 321 281 259 254 258 226 263 120 143 91 42 39 43 38 32 24 359 334 335 346 348 348 4 350 335 322 302 297 290 287 290 293 288 281 281 293 290 299 289 280 272 271 275 276 265 260 259 266
290 242 228 233 237 241 240 275 105 81 30 21 34 32 23 12 0 350 352 346 348 351 356 349 341 334 320 305 305 297 298 294 289 283 284 279 280 271 282 287 285 276 280 273 267 263 254 263 266
282 279 251 237 234 256 117 259 66 67 47 22 16 24 20 9 357 357 349 347 348 353 353 335 327 322 317 309 305 303 298 277 264 270 274 280 283 280 314 300 286 288 286 277 275 266 269 260 256
300 297 308 304 307 319 195 281 82 76 53 27 18 23 21 12 5 358 351 351 345 345 340 329 316 314 309 301 309 305 289 275 271 284 288 277 283 299 304 290 285 287 288 286 281 271 259 260 260
287 297 329 288 280 280 249 126 128 95 46 27 19 14 13 8 1 353 352 346 341 339 329 322 321 313 300 294 295 297 306 305 301 279 267 274 289 294 295 285 288 296 299 297 287 281 278 269 265
331 321 277 286 302 290 260 238 73 49 9 10 8 6 7 6 359 353 347 352 341 335 324 314 320 325 324 320 311 311 304 307 302 290 299 293 296 301 299 296 294 298 304 300 292 282 284 277 281
299 282 302 294 303 301 302 49 61 46 10 355 0 1 0 357 353 347 349 352 332 310 310 315 319 325 322 321 317 320 317 308 298 293 295 296 302 306 303 301 297 299 302 303 288 287 282 282 290
336 336 319 305 302 284 291 68 80 53 24 5 360 357 357 351 349 348 352 350 338 326 323 311 315 323 318 315 310 325 332 330 315 308 308 306 310 311 308 299 295 297 301 299 294 290 296 296 299